EW0235 Weather Reports


Display with metric or nautical units.
time (UTC)temp
F
wind
direction
speed
MPH
gust
MPH
rain 1hr
in
rain 24hr
in
rain mn
in
humidity
%
barometer
mb
20260505200042 77 237 0.0 0.0 0.00 0.00 0.00 44 1013.4
20260505194542 77 235 0.0 0.0 0.00 0.00 0.00 45 1013.7
20260505193044 76 272 0.0 0.0 0.00 0.00 0.00 42 1013.7
20260505191541 76 243 0.0 0.0 0.00 0.00 0.00 44 1013.8
20260505190035 76 226 0.0 0.0 0.00 0.00 0.00 44 1013.9
20260505184535 76 230 0.0 0.0 0.00 0.00 0.00 44 1014.0
20260505183037 76 260 0.0 0.0 0.00 0.00 0.00 45 1014.3
20260505181534 77 186 0.0 0.0 0.00 0.00 0.00 41 1014.7
20260505180032 77 243 0.0 0.0 0.00 0.00 0.00 42 1014.7
20260505174529 77 206 0.0 0.0 0.00 0.00 0.00 44 1015.0
20260505173027 77 251 0.0 0.0 0.00 0.00 0.00 45 1015.2
20260505171526 77 270 0.0 0.0 0.00 0.00 0.00 44 1015.3
20260505170030 76 230 0.0 0.0 0.00 0.00 0.00 44 1015.2
20260505164523 75 185 0.0 0.0 0.00 0.00 0.00 43 1015.1
20260505163021 75 232 0.0 0.0 0.00 0.00 0.00 46 1015.1
20260505161536 75 272 0.0 0.0 0.00 0.00 0.00 50 1015.4
20260505153018 75 48 0.0 0.0 0.00 0.00 0.00 48 1015.5
20260505151516 74 241 0.0 0.0 0.00 0.00 0.00 49 1015.6
20260505124551 57 183 0.0 0.0 0.00 0.00 0.00 81 1015.2
20260505123046 55 183 0.0 0.0 0.00 0.00 0.00 86 1014.9
20260505121545 53 183 0.0 0.0 0.00 0.00 0.00 88 1015.0
20260505120046 52 183 0.0 0.0 0.00 0.00 0.00 89 1015.1
20260505114542 51 183 0.0 0.0 0.00 0.00 0.00 88 1014.9
20260505113042 51 183 0.0 0.0 0.00 0.00 0.00 87 1014.6
20260505111541 51 183 0.0 0.0 0.00 0.00 0.00 86 1014.4
20260505101543 52 22 0.0 0.0 0.00 0.00 0.00 84 1014.1
20260505100035 52 22 0.0 0.0 0.00 0.00 0.00 84 1014.5
20260505094532 52 22 0.0 0.0 0.00 0.00 0.00 83 1014.2
20260505093034 52 22 0.0 0.0 0.00 0.00 0.00 83 1014.2
20260505091534 52 22 0.0 0.0 0.00 0.00 0.00 82 1014.3
20260505090039 52 22 0.0 0.0 0.00 0.00 0.00 82 1014.5
20260505084526 53 22 0.0 0.0 0.00 0.00 0.00 80 1014.6
20260505083025 53 22 0.0 0.0 0.00 0.00 0.00 80 1014.5
20260505081526 54 22 0.0 0.0 0.00 0.00 0.00 80 1014.6
20260505080038 54 22 0.0 0.0 0.00 0.00 0.00 79 1014.5
20260505074525 54 22 0.0 0.0 0.00 0.00 0.00 79 1014.4
20260505073028 55 22 0.0 0.0 0.00 0.00 0.00 78 1014.4
20260505071518 55 22 0.0 0.0 0.00 0.00 0.00 78 1014.5
20260505070017 55 22 0.0 0.0 0.00 0.00 0.00 77 1014.4
20260505064515 56 22 0.0 0.0 0.00 0.00 0.00 76 1014.5
20260505063014 56 22 0.0 0.0 0.00 0.00 0.00 75 1014.5
20260505061510 57 22 0.0 0.0 0.00 0.00 0.00 74 1014.6
20260505060009 57 22 0.0 0.0 0.00 0.00 0.00 73 1014.6
20260505054507 57 22 0.0 0.0 0.00 0.00 0.00 72 1014.7
20260505053006 58 22 0.0 0.0 0.00 0.00 0.00 72 1014.7
20260505051504 59 249 0.0 0.0 0.00 0.00 0.00 71 1014.7
20260505041555 61 234 0.0 0.0 0.00 0.00 0.00 65 1014.6
20260505034551 62 234 0.0 0.0 0.00 0.00 0.00 62 1014.8
20260505033045 62 234 0.0 0.0 0.00 0.00 0.00 61 1014.8
20260505031552 62 234 0.0 0.0 0.00 0.00 0.00 61 1014.8
20260505030035 62 234 0.0 0.0 0.00 0.00 0.00 62 1014.8
20260505024544 63 234 0.0 0.0 0.00 0.00 0.00 61 1014.8
20260505023036 63 234 0.0 0.0 0.00 0.00 0.00 61 1014.7
20260505021520 64 234 0.0 0.0 0.00 0.00 0.00 59 1014.7
20260505020018 64 234 0.0 0.0 0.00 0.00 0.00 58 1014.6
20260505014518 65 234 0.0 0.0 0.00 0.00 0.00 56 1014.6
20260505013009 66 234 0.0 0.0 0.00 0.00 0.00 55 1014.4
20260505011503 67 234 0.0 0.0 0.00 0.00 0.00 51 1014.2
20260505010001 68 234 0.0 0.0 0.00 0.00 0.00 50 1014.1
20260505004600 69 234 0.0 0.0 0.00 0.00 0.00 48 1014.0
20260505003059 70 234 0.0 0.0 0.00 0.00 0.00 46 1013.9
20260505001559 72 234 0.0 0.0 0.00 0.00 0.00 44 1013.9
20260505000059 72 234 0.0 0.0 0.00 0.00 0.00 42 1013.7
20260504234553 73 234 0.0 0.0 0.00 0.00 0.00 42 1013.7
20260504233049 73 234 0.0 0.0 0.00 0.00 0.00 41 1013.7
20260504231545 74 234 0.0 0.0 0.00 0.00 0.00 39 1013.8
20260504230046 74 234 0.0 0.0 0.00 0.00 0.00 40 1013.8
20260504224538 75 234 0.0 0.0 0.00 0.00 0.00 39 1013.8
20260504223032 75 234 0.0 0.0 0.00 0.00 0.00 39 1013.8
20260504221527 75 234 0.0 0.0 0.00 0.00 0.00 40 1013.8
20260504220023 75 234 0.0 0.0 0.00 0.00 0.00 39 1013.7
20260504214524 75 234 0.0 0.0 0.00 0.00 0.00 38 1013.6
20260504213019 75 234 0.0 0.0 0.00 0.00 0.00 40 1013.7
20260504211515 75 234 0.0 0.0 0.00 0.00 0.00 40 1013.7
20260504210006 76 230 0.0 0.0 0.00 0.00 0.00 38 1013.8
20260504204501 76 230 0.0 0.0 0.00 0.00 0.00 39 1013.9
20260504203134 76 340 0.0 0.0 0.00 0.00 0.00 39 1013.9
20260504201552 77 340 0.0 0.0 0.00 0.00 0.00 39 1014.2